ASA510 KSEA-CYYC

Flight info

Callsign ASA510
Flight time 1h 11m
Altitude 31000
Route MONTN2 ALPSE YDC MENBO NORET IGVEP7
Aircraft B38M/M-VGDW/C

Departure

Time 2026-05-05 23:21
Airport Seattle–Tacoma International Airport (KSEA)

Arrival

Time 2026-05-06 00:32
Airport Calgary International Airport (CYYC)
Time Latitude Longitude Altitude Speed Heading
2026-05-05 22:37 47.44863 -122.30408 412 ft 0 kts 43°
2026-05-05 23:09 47.44857 -122.30417 403 ft 3 kts 41°
2026-05-05 23:09 47.44841 -122.30435 409 ft 2 kts 39°
2026-05-05 23:09 47.44832 -122.30447 407 ft 3 kts 33°
2026-05-05 23:09 47.44816 -122.30456 407 ft 3 kts 351°
2026-05-05 23:10 47.44801 -122.30444 410 ft 3 kts 308°
2026-05-05 23:10 47.44790 -122.30420 409 ft 3 kts 297°
2026-05-05 23:10 47.44783 -122.30399 409 ft 1 kts 297°
2026-05-05 23:10 47.44781 -122.30394 410 ft 0 kts 297°
2026-05-05 23:15 47.44787 -122.30411 409 ft 4 kts 297°
2026-05-05 23:15 47.44803 -122.30466 406 ft 8 kts 289°
2026-05-05 23:15 47.44808 -122.30538 410 ft 2 kts 272°
2026-05-05 23:15 47.44810 -122.30586 409 ft 7 kts 283°
2026-05-05 23:16 47.44858 -122.30630 409 ft 10 kts 359°
2026-05-05 23:16 47.44928 -122.30629 411 ft 11 kts
2026-05-05 23:16 47.45005 -122.30628 414 ft 12 kts
2026-05-05 23:16 47.45092 -122.30627 417 ft 13 kts
2026-05-05 23:17 47.45187 -122.30627 414 ft 14 kts
2026-05-05 23:17 47.45286 -122.30626 420 ft 14 kts
2026-05-05 23:17 47.45384 -122.30626 422 ft 14 kts
2026-05-05 23:17 47.45483 -122.30625 422 ft 15 kts
2026-05-05 23:18 47.45588 -122.30623 429 ft 16 kts
2026-05-05 23:18 47.45704 -122.30622 433 ft 18 kts
2026-05-05 23:18 47.45837 -122.30621 440 ft 20 kts 360°
2026-05-05 23:18 47.45965 -122.30621 438 ft 11 kts
2026-05-05 23:19 47.46048 -122.30618 435 ft 14 kts
2026-05-05 23:19 47.46156 -122.30617 439 ft 17 kts
2026-05-05 23:19 47.46258 -122.30629 437 ft 12 kts 326°
2026-05-05 23:19 47.46276 -122.30746 439 ft 13 kts 237°
2026-05-05 23:20 47.46179 -122.30778 433 ft 17 kts 179°
2026-05-05 23:20 47.45953 -122.30780 432 ft 67 kts 181°
2026-05-05 23:20 47.45181 -122.30791 415 ft 151 kts 180°
2026-05-05 23:20 47.43966 -122.30763 679 ft 196 kts 182°
2026-05-05 23:21 47.42604 -122.30775 1802 ft 198 kts 182°
2026-05-05 23:21 47.41238 -122.30993 2888 ft 201 kts 196°
2026-05-05 23:21 47.39820 -122.31681 3478 ft 231 kts 197°
2026-05-05 23:21 47.38115 -122.31752 4059 ft 256 kts 169°
2026-05-05 23:22 47.36385 -122.31351 5439 ft 253 kts 173°
2026-05-05 23:22 47.34603 -122.30978 6510 ft 263 kts 164°
2026-05-05 23:22 47.33025 -122.29690 7730 ft 262 kts 136°
2026-05-05 23:22 47.31985 -122.27483 8835 ft 265 kts 109°
2026-05-05 23:23 47.31662 -122.24826 9974 ft 266 kts 87°
2026-05-05 23:23 47.31766 -122.22054 10840 ft 279 kts 83°
2026-05-05 23:23 47.31905 -122.19137 11502 ft 299 kts 84°
2026-05-05 23:23 47.32056 -122.15980 12135 ft 320 kts 84°
2026-05-05 23:24 47.32217 -122.12597 12711 ft 341 kts 83°
2026-05-05 23:24 47.32449 -122.09041 13312 ft 356 kts 75°
2026-05-05 23:24 47.33496 -122.05754 14116 ft 357 kts 49°
2026-05-05 23:24 47.35374 -122.03365 14514 ft 358 kts 27°
2026-05-05 23:25 47.37708 -122.02154 14695 ft 356 kts
2026-05-05 23:25 47.40180 -122.02074 14856 ft 357 kts 355°
2026-05-05 23:25 47.42665 -122.02336 14952 ft 358 kts 356°
2026-05-05 23:25 47.45160 -122.02553 15489 ft 360 kts 357°
2026-05-05 23:26 47.47653 -122.02761 16555 ft 358 kts 357°
2026-05-05 23:26 47.50150 -122.02966 17493 ft 361 kts 357°
2026-05-05 23:26 47.52635 -122.03160 18366 ft 363 kts 357°
2026-05-05 23:26 47.55169 -122.03360 19129 ft 367 kts 357°
2026-05-05 23:27 47.57725 -122.03561 19897 ft 370 kts 357°
2026-05-05 23:27 47.60305 -122.03766 20660 ft 373 kts 357°
2026-05-05 23:27 47.62905 -122.03971 21394 ft 376 kts 356°
2026-05-05 23:27 47.65539 -122.04182 22043 ft 382 kts 356°
2026-05-05 23:28 47.68199 -122.04392 22760 ft 385 kts 356°
2026-05-05 23:28 47.70882 -122.04606 23465 ft 388 kts 356°
2026-05-05 23:28 47.73598 -122.04823 24071 ft 392 kts 356°
2026-05-05 23:28 47.76332 -122.05043 24636 ft 396 kts 356°
2026-05-05 23:29 47.79092 -122.05265 25185 ft 399 kts 356°
2026-05-05 23:29 47.81844 -122.05487 25719 ft 403 kts 356°
2026-05-05 23:29 47.84655 -122.05714 26250 ft 407 kts 356°
2026-05-05 23:29 47.87485 -122.05944 26775 ft 410 kts 356°
2026-05-05 23:30 47.90334 -122.06177 27462 ft 409 kts 356°
2026-05-05 23:30 47.93165 -122.06412 28227 ft 406 kts 355°
2026-05-05 23:30 47.95983 -122.06647 28973 ft 405 kts 355°
2026-05-05 23:30 47.98790 -122.06879 29664 ft 404 kts 355°
2026-05-05 23:31 48.01591 -122.07109 30331 ft 402 kts 355°
2026-05-05 23:31 48.04347 -122.07334 30861 ft 403 kts 355°
2026-05-05 23:31 48.07145 -122.07561 31055 ft 401 kts 355°
2026-05-05 23:31 48.09910 -122.07786 31088 ft 398 kts 355°
2026-05-05 23:32 48.15426 -122.07415 31062 ft 402 kts 14°
2026-05-05 23:32 48.17980 -122.05666 31080 ft 409 kts 29°
2026-05-05 23:32 48.20247 -122.03055 31080 ft 413 kts 36°
2026-05-05 23:33 48.24608 -121.97417 31085 ft 414 kts 37°
2026-05-05 23:33 48.28887 -121.91649 31060 ft 413 kts 38°
2026-05-05 23:34 48.33112 -121.85872 31047 ft 414 kts 38°
2026-05-05 23:34 48.37361 -121.80036 31033 ft 414 kts 38°
2026-05-05 23:35 48.41610 -121.74187 31038 ft 413 kts 38°
2026-05-05 23:35 48.45841 -121.68346 31019 ft 412 kts 38°
2026-05-05 23:36 48.50056 -121.62516 30997 ft 412 kts 38°
2026-05-05 23:36 48.54282 -121.56657 31016 ft 413 kts 38°
2026-05-05 23:37 48.58481 -121.50820 30983 ft 413 kts 38°
2026-05-05 23:37 48.62714 -121.44920 31009 ft 415 kts 38°
2026-05-05 23:38 48.66949 -121.39006 30974 ft 414 kts 38°
2026-05-05 23:38 48.71177 -121.33086 30965 ft 414 kts 38°
2026-05-05 23:39 48.75390 -121.27126 30954 ft 414 kts 38°
2026-05-05 23:39 48.79623 -121.21217 30962 ft 414 kts 38°
2026-05-05 23:40 48.83802 -121.15334 30907 ft 409 kts 38°
2026-05-05 23:40 48.85888 -121.12389 31008 ft 411 kts 38°
2026-05-05 23:40 48.87976 -121.09435 30970 ft 410 kts 38°
2026-05-05 23:41 48.92144 -121.03519 30938 ft 411 kts 38°
2026-05-05 23:41 48.96331 -120.97576 30905 ft 413 kts 38°
2026-05-05 23:42 49.00526 -120.91603 30967 ft 413 kts 38°
2026-05-05 23:42 49.04697 -120.85651 30925 ft 409 kts 38°
2026-05-05 23:43 49.08822 -120.79751 30948 ft 410 kts 38°
2026-05-05 23:43 49.12970 -120.73803 30917 ft 409 kts 38°
2026-05-05 23:44 49.17119 -120.67839 30941 ft 409 kts 38°
2026-05-05 23:44 49.21257 -120.61875 30923 ft 408 kts 38°
2026-05-05 23:45 49.25373 -120.55930 30925 ft 407 kts 38°
2026-05-05 23:45 49.29462 -120.50012 30924 ft 407 kts 38°
2026-05-05 23:46 49.33578 -120.44044 30923 ft 407 kts 38°
2026-05-05 23:46 49.37594 -120.37889 30912 ft 413 kts 49°
2026-05-05 23:47 49.38960 -120.33959 30951 ft 424 kts 62°
2026-05-05 23:47 49.40078 -120.29775 30917 ft 422 kts 61°
2026-05-05 23:47 49.42288 -120.21486 30919 ft 424 kts 62°
2026-05-05 23:48 49.44527 -120.12886 30913 ft 442 kts 62°
2026-05-05 23:48 49.46808 -120.04050 30915 ft 445 kts 62°
2026-05-05 23:49 49.49083 -119.95206 30935 ft 445 kts 62°
2026-05-05 23:49 49.51346 -119.86379 30907 ft 443 kts 62°
2026-05-05 23:50 49.53582 -119.77618 30886 ft 442 kts 62°
2026-05-05 23:50 49.55828 -119.68785 30895 ft 444 kts 62°
2026-05-05 23:51 49.58068 -119.59942 30888 ft 443 kts 62°
2026-05-05 23:51 49.60296 -119.51113 30895 ft 441 kts 62°
2026-05-05 23:52 49.62511 -119.42299 30894 ft 441 kts 62°
2026-05-05 23:52 49.64719 -119.33479 30901 ft 440 kts 62°
2026-05-05 23:53 49.66902 -119.24723 30915 ft 440 kts 62°
2026-05-05 23:53 49.69092 -119.15902 30924 ft 440 kts 62°
2026-05-05 23:54 49.71275 -119.07079 30934 ft 440 kts 62°
2026-05-05 23:54 49.73450 -118.98252 30935 ft 439 kts 62°
2026-05-05 23:55 49.75603 -118.89480 30937 ft 440 kts 62°
2026-05-05 23:55 49.77762 -118.80650 30945 ft 439 kts 62°
2026-05-05 23:56 49.79912 -118.71817 30962 ft 439 kts 61°
2026-05-05 23:56 49.82055 -118.62982 30933 ft 438 kts 61°
2026-05-05 23:57 49.84188 -118.54146 30950 ft 438 kts 62°
2026-05-05 23:57 49.86299 -118.45369 30951 ft 438 kts 62°
2026-05-05 23:58 49.88420 -118.36518 30974 ft 439 kts 62°
2026-05-05 23:58 49.90532 -118.27667 30945 ft 436 kts 62°
2026-05-05 23:59 49.92629 -118.18841 30955 ft 437 kts 61°
2026-05-05 23:59 49.94720 -118.10009 30943 ft 436 kts 61°
2026-05-06 00:00 49.96802 -118.01174 30962 ft 436 kts 62°
2026-05-06 00:00 49.98856 -117.92439 30971 ft 436 kts 61°
2026-05-06 00:01 50.00923 -117.83585 30952 ft 436 kts 62°
2026-05-06 00:01 50.02985 -117.74728 30914 ft 436 kts 62°
2026-05-06 00:02 50.05040 -117.65870 30973 ft 437 kts 62°
2026-05-06 00:02 50.07097 -117.56955 30966 ft 436 kts 62°
2026-05-06 00:03 50.09127 -117.48129 31017 ft 435 kts 62°
2026-05-06 00:03 50.11161 -117.39247 30959 ft 435 kts 62°
2026-05-06 00:04 50.13181 -117.30391 30965 ft 434 kts 62°
2026-05-06 00:04 50.15196 -117.21518 30977 ft 434 kts 62°
2026-05-06 00:05 50.18213 -117.08157 31068 ft 435 kts 62°
2026-05-06 00:06 50.20179 -116.99408 30990 ft 428 kts 62°
2026-05-06 00:06 50.22151 -116.90597 30985 ft 431 kts 62°
2026-05-06 00:07 50.24123 -116.81751 31012 ft 431 kts 62°
2026-05-06 00:07 50.26088 -116.72895 31015 ft 432 kts 62°
2026-05-06 00:08 50.28031 -116.64101 31026 ft 430 kts 62°
2026-05-06 00:08 50.29973 -116.55275 31066 ft 429 kts 62°
2026-05-06 00:09 50.31917 -116.46419 31048 ft 430 kts 62°
2026-05-06 00:09 50.33848 -116.37577 31041 ft 429 kts 62°
2026-05-06 00:09 50.34799 -116.33208 30501 ft 422 kts 62°
2026-05-06 00:10 50.35747 -116.28846 29699 ft 423 kts 62°
2026-05-06 00:10 50.36687 -116.24515 29134 ft 418 kts 62°
2026-05-06 00:10 50.37604 -116.20279 28506 ft 415 kts 62°
2026-05-06 00:10 50.38523 -116.16027 27912 ft 411 kts 62°
2026-05-06 00:11 50.39448 -116.11814 27240 ft 407 kts 62°
2026-05-06 00:11 50.40369 -116.07650 26691 ft 401 kts 62°
2026-05-06 00:11 50.41284 -116.03523 26032 ft 401 kts 62°
2026-05-06 00:11 50.42194 -115.99407 25485 ft 398 kts 62°
2026-05-06 00:12 50.43095 -115.95326 24932 ft 395 kts 62°
2026-05-06 00:12 50.43989 -115.91269 24372 ft 393 kts 62°
2026-05-06 00:12 50.44875 -115.87238 23854 ft 391 kts 62°
2026-05-06 00:12 50.45757 -115.83218 23377 ft 388 kts 63°
2026-05-06 00:13 50.46627 -115.79248 22904 ft 382 kts 63°
2026-05-06 00:13 50.47196 -115.76646 22557 ft 380 kts 63°
2026-05-06 00:13 50.48325 -115.71475 21850 ft 376 kts 63°
2026-05-06 00:13 50.49168 -115.67602 21328 ft 373 kts 63°
2026-05-06 00:14 50.50002 -115.63765 20814 ft 370 kts 63°
2026-05-06 00:14 50.50831 -115.59947 20337 ft 368 kts 63°
2026-05-06 00:14 50.51651 -115.56159 19863 ft 365 kts 63°
2026-05-06 00:14 50.52464 -115.52397 19432 ft 363 kts 63°
2026-05-06 00:15 50.53000 -115.49917 19179 ft 361 kts 63°
2026-05-06 00:15 50.53805 -115.46188 18684 ft 359 kts 63°
2026-05-06 00:15 50.54600 -115.42484 18221 ft 356 kts 64°
2026-05-06 00:15 50.55644 -115.37620 17552 ft 352 kts 63°
2026-05-06 00:16 50.56474 -115.34028 16861 ft 349 kts 64°
2026-05-06 00:16 50.57211 -115.30428 16437 ft 345 kts 64°
2026-05-06 00:16 50.57959 -115.26842 15849 ft 344 kts 64°
2026-05-06 00:16 50.58466 -115.24436 15422 ft 342 kts 64°
2026-05-06 00:17 50.59210 -115.20924 14797 ft 341 kts 64°
2026-05-06 00:17 50.59950 -115.17422 14524 ft 335 kts 64°
2026-05-06 00:17 50.60684 -115.13954 14222 ft 335 kts 64°
2026-05-06 00:17 50.61420 -115.10489 14066 ft 334 kts 64°
2026-05-06 00:18 50.62156 -115.07003 14078 ft 336 kts 64°
2026-05-06 00:18 50.62892 -115.03528 14077 ft 331 kts 64°
2026-05-06 00:18 50.63603 -115.00169 14090 ft 316 kts 64°
2026-05-06 00:18 50.64286 -114.96932 14119 ft 307 kts 63°
2026-05-06 00:19 50.64958 -114.93755 14126 ft 306 kts 63°
2026-05-06 00:19 50.65630 -114.90569 14078 ft 307 kts 63°
2026-05-06 00:19 50.66292 -114.87424 14102 ft 305 kts 64°
2026-05-06 00:19 50.66954 -114.84242 14139 ft 307 kts 64°
2026-05-06 00:20 50.67619 -114.81052 14131 ft 307 kts 64°
2026-05-06 00:20 50.68284 -114.77861 14104 ft 307 kts 64°
2026-05-06 00:20 50.68948 -114.74663 14107 ft 307 kts 64°
2026-05-06 00:20 50.69614 -114.71458 14105 ft 308 kts 64°
2026-05-06 00:21 50.70278 -114.68248 14124 ft 308 kts 64°
2026-05-06 00:21 50.71170 -114.65266 14110 ft 292 kts 44°
2026-05-06 00:21 50.72541 -114.62986 13831 ft 286 kts 39°
2026-05-06 00:21 50.73925 -114.60707 13342 ft 289 kts 40°
2026-05-06 00:22 50.75322 -114.58411 12798 ft 292 kts 40°
2026-05-06 00:22 50.76733 -114.56100 12353 ft 292 kts 40°
2026-05-06 00:22 50.78145 -114.53788 11889 ft 293 kts 41°
2026-05-06 00:22 50.79555 -114.51478 11458 ft 290 kts 41°
2026-05-06 00:23 50.80924 -114.49277 11045 ft 279 kts 39°
2026-05-06 00:23 50.82301 -114.47197 10642 ft 270 kts 39°
2026-05-06 00:23 50.83648 -114.45155 10068 ft 269 kts 40°
2026-05-06 00:23 50.84995 -114.43103 9449 ft 268 kts 40°
2026-05-06 00:24 50.86291 -114.41016 9116 ft 266 kts 49°
2026-05-06 00:24 50.87260 -114.38537 8812 ft 265 kts 64°
2026-05-06 00:24 50.87763 -114.35780 8517 ft 258 kts 78°
2026-05-06 00:24 50.87938 -114.33005 8230 ft 248 kts 83°
2026-05-06 00:25 50.88245 -114.30400 7941 ft 235 kts 68°
2026-05-06 00:25 50.88837 -114.28039 7562 ft 229 kts 64°
2026-05-06 00:25 50.89480 -114.25781 7157 ft 226 kts 63°
2026-05-06 00:25 50.90145 -114.23535 6748 ft 224 kts 63°
2026-05-06 00:26 50.90815 -114.21339 6400 ft 219 kts 63°
2026-05-06 00:26 50.91454 -114.19209 6152 ft 208 kts 63°
2026-05-06 00:26 50.92035 -114.17188 6055 ft 197 kts 64°
2026-05-06 00:26 50.92609 -114.15213 6093 ft 198 kts 64°
2026-05-06 00:27 50.93183 -114.13234 6056 ft 197 kts 62°
2026-05-06 00:27 50.93734 -114.11287 5801 ft 194 kts 63°
2026-05-06 00:27 50.94291 -114.09347 5577 ft 191 kts 63°
2026-05-06 00:27 50.94836 -114.07458 5590 ft 186 kts 62°
2026-05-06 00:28 50.95555 -114.05776 5519 ft 183 kts 44°
2026-05-06 00:28 50.96555 -114.04620 5489 ft 177 kts 30°
2026-05-06 00:28 50.97634 -114.03753 5571 ft 172 kts 26°
2026-05-06 00:28 50.98712 -114.02920 5552 ft 173 kts 26°
2026-05-06 00:29 50.99823 -114.02217 5502 ft 172 kts 16°
2026-05-06 00:29 51.00992 -114.02065 5302 ft 163 kts 359°
2026-05-06 00:29 51.02090 -114.02132 5138 ft 155 kts
2026-05-06 00:29 51.03133 -114.02138 4947 ft 146 kts
2026-05-06 00:30 51.04136 -114.02132 4740 ft 144 kts
2026-05-06 00:30 51.05134 -114.02134 4541 ft 143 kts
2026-05-06 00:30 51.06117 -114.02123 4303 ft 140 kts
2026-05-06 00:30 51.07101 -114.02102 4122 ft 143 kts
2026-05-06 00:31 51.08087 -114.02090 3952 ft 144 kts
2026-05-06 00:31 51.09099 -114.02105 3722 ft 153 kts 359°
2026-05-06 00:31 51.10163 -114.02129 3580 ft 146 kts
2026-05-06 00:31 51.11074 -114.02137 3560 ft 111 kts
2026-05-06 00:32 51.11625 -114.02133 3549 ft 51 kts
2026-05-06 00:32 51.11852 -114.02132 3551 ft 25 kts
2026-05-06 00:32 51.11947 -114.02168 3548 ft 6 kts 321°
2026-05-06 00:32 51.11964 -114.02234 3549 ft 8 kts 267°
2026-05-06 00:33 51.11928 -114.02314 3545 ft 9 kts 212°
2026-05-06 00:33 51.11879 -114.02383 3550 ft 11 kts 222°
2026-05-06 00:33 51.11836 -114.02426 3549 ft 3 kts 173°
2026-05-06 00:33 51.11807 -114.02420 3550 ft 6 kts 173°
2026-05-06 00:34 51.11761 -114.02413 3551 ft 8 kts 179°
2026-05-06 00:34 51.11699 -114.02417 3552 ft 10 kts 182°